Regional Weather Roundup
Issued by NWS

Home | Current Version | Previous Version | Graphics & Text | Print | Product List | Glossary On
Versions: 1 2 3 4 5 6 7 8 9 10 11 12 13 14 15 16 17 18 19 20 21 22 23 24 25 26 27
000
ASUS45 KBOU 192007
RWRCO

WEATHER ROUNDUP FOR COLORADO
NATIONAL WEATHER SERVICE DENVER/BOULDER CO
100 PM MST SUN FEB 19 2017

NOTE: "FAIR" INDICATES FEW OR NO CLOUDS BELOW 12000 FEET WITH NO
SIGNIFICANT WEATHER AND/OR OBSTRUCTIONS TO VISIBILITY.

COZ001>005-013-030-031-192100-
...NORTHWEST COLORADO...

CITY           SKY/WX    TMP DP  RH WIND       PRES   REMARKS
CRAIG          CLOUDY    44  29  55 NE3       29.70F
HAYDEN         FAIR      39  27  60 CALM      29.70F
MEEKER         LGT RAIN  45  34  65 W13       29.70F
MOUNT WERNER   NOT AVBL
STEAMBOAT SPGS NOT AVBL
WALDEN         NOT AVBL
$$

COZ006>008-011-192100-
...WEST CENTRAL VALLEYS...

CITY           SKY/WX    TMP DP  RH WIND       PRES   REMARKS
GRAND JUNCTION LGT RAIN  44  42  93 NW12      29.75R
MONTROSE       CLOUDY    43  30  60 S12       29.79S
EAGLE          MOSUNNY   46  28  49 CALM      29.69F
RIFLE          FAIR      48  34  58 VRB6      29.69F
DELTA          DRIZZLE   48  34  57 SW14G21   29.77S
NUCLA          CLOUDY    43  32  65 S6        29.85F
$$

COZ017>023-064>068-192100-
...SOUTHWEST COLORADO...

CITY           SKY/WX    TMP DP  RH WIND       PRES   REMARKS
DURANGO        FAIR      38  36  92 VRB6      29.84F
CORTEZ         CLOUDY    40  36  86 VRB6      29.83F
PAGOSA SPRINGS PTSUNNY   38  32  78 SW12G17   29.84F
TELLURIDE      LGT SNOW  30  27  86 CALM      29.84F
WOLF CREEK PAS SNOW      21  21 100 S21G31    29.87F VSB 1/4 WCI   6
$$

COZ009-010-012-014-032>034-037-058>063-192100-
...CENTRAL COLORADO...

CITY           SKY/WX    TMP DP  RH WIND       PRES   REMARKS
ASPEN          CLOUDY    45  28  51 N12       29.66F
BUENA VISTA    NOT AVBL
COPPER MTN     NOT AVBL
BERTHOUD PASS  PTSUNNY   27  16  63 SE14      29.82F WCI  15
COTTONWOOD PAS CLOUDY    43  23  45 E12       29.75F
GUNNISON       FAIR      42  29  59 CALM      29.75S
KREMMLING      CLOUDY    45  30  57 CALM      29.69F
LEADVILLE      CLOUDY    33  22  63 S12       29.74S WCI  24
MONARCH PASS   SNOW      27  23  86 S17G24    29.92F VSB 1/4 WCI  14
SALIDA         FAIR      49  25  39 S22G33    29.77F
SUNLIGHT       NOT AVBL
WILKERSON PASS CLOUDY    34  19  55 SW7       29.83F WCI  28
$$

COZ069>075-192100-
...SAN LUIS VALLEY/SANGRE DE CRISTO MOUNTAINS...

CITY           SKY/WX    TMP DP  RH WIND       PRES   REMARKS
ALAMOSA        FAIR      45  30  55 S20       29.75F
LA VETA PASS   PTSUNNY   37  25  60 NE17G32   29.80F
SAGUACHE       RAIN      34  32  93 W14       29.78R WCI  24
$$

COZ035-036-038>040-192100-
...NORTHERN COLORADO FRONT RANGE...

CITY           SKY/WX    TMP DP  RH WIND       PRES   REMARKS
DENVER INTL AP PTSUNNY   60  25  26 N13       29.59F
DMNS CITY PARK   N/A     62  24  23 NE8G20    29.58F
AURORA         PTSUNNY   62  20  20 S17       29.59F
FRONT RANGE AP NOT AVBL
ERIE MUNI ARPT FAIR      59  24  25 N6        29.59F
BOULDER MUN AP FAIR      57  27  30 NW3       29.59F
CENTENNIAL     PTSUNNY   60  19  20 S21G32    29.60F
BROOMFIELD     PTSUNNY   57  25  28 N7        29.61F
FORT COLLINS   FAIR      56  28  34 N7        29.61F
LONGMONT       FAIR      62  27  26 N8        29.61F
$$

COZ041-046-047-076>085-087-088-192100-
...PIKES PEAK/PALMER DIVIDE AND SOUTHERN FOOTHILLS...

CITY           SKY/WX    TMP DP  RH WIND       PRES   REMARKS
COLO. SPRINGS  PTSUNNY   55  25  31 S9        29.68F
A. F. ACADEMY  FAIR      54  23  29 SE14      29.66F
SCHRIEVER AFB  FAIR      55  26  33 S18       29.68F
ELLICOTT       FAIR     N/A N/A N/A S17G26    29.66F
FALCON         NOT AVBL
FORT CARSON    FAIR      57  26  30 S8        29.65F
LIMON          FAIR      59  30  33 SE20      29.65F
MONUMENT HILL  FAIR      50  23  34 S21       29.69F
TRINIDAD       FAIR      56  27  32 S25       29.69F
$$

COZ042>045-048>051-090-091-192100-
...NORTHEAST COLORADO...

CITY           SKY/WX    TMP DP  RH WIND       PRES   REMARKS
GREELEY ARPT   FAIR      56  28  34 NE5       29.61F
AKRON          FAIR      67  26  21 S17G26    29.62F
BURLINGTON     FAIR      62  39  42 S29G36    29.69R
WRAY           NOT AVBL
STERLING       FAIR      63  32  31 SE3       29.60F
HOLYOKE        FAIR      64  32  29 S13       29.65F
FORT MORGAN    FAIR      61  26  26 E6        29.61F
$$

COZ086-089-092>099-192100-
...SOUTHEAST COLORADO...

CITY           SKY/WX    TMP DP  RH WIND       PRES   REMARKS
PUEBLO         FAIR      66  28  24 S22G32    29.59F
LA JUNTA       FAIR      68  29  23 S22G28    29.63F
LAMAR          PTSUNNY   65  37  35 S20G26    29.65F
SPRINGFIELD      N/A     58  39  49 S16       29.72F
$$




USA.gov is the U.S. government's official web portal to all federal, state and local government web resources and services.